SCP
0 0 0 0 0 0 0 0 0 0 0 0 0 1 1 1 1 2 2 2 2 3 6 8 10 11 12 12 11 12 14 15 13 11 9 8 6 5 5 6 9 11 10 8
0 0 0 0 0 0 0 0 0 0 0 0 0 1 1 1 1 2 2 2 3 5 8 10 10 10 11 10 10 10 13 14 13 12 11 10 8 6 6 7 9 12 11 10
0 0 0 0 0 0 0 0 0 0 0 0 0 1 1 1 1 2 3 3 4 6 9 11 10 9 9 9 9 9 12 14 14 13 13 12 11 9 8 9 11 13 13 11
0 0 0 0 0 0 0 0 0 0 0 0 0 1 1 2 2 2 2 4 5 6 8 9 9 8 8 9 9 9 11 15 16 14 14 15 15 14 12 12 13 14 13 11
0 0 0 0 0 0 0 0 0 0 0 0 0 1 2 2 2 3 4 5 6 7 8 8 8 8 8 9 8 8 10 15 17 15 14 16 17 16 14 14 15 13 12 11
0 0 0 0 0 0 0 0 0 0 0 0 0 1 2 2 3 5 7 6 7 8 8 8 8 7 8 9 8 7 9 12 15 16 15 15 15 14 13 14 15 13 11 11
0 0 0 0 0 0 0 0 0 0 0 0 0 1 3 4 6 8 8 7 7 8 8 7 7 6 7 7 8 8 9 11 13 15 15 14 14 14 14 15 15 13 11 10
0 0 0 0 0 0 0 0 0 0 0 0 1 1 3 5 7 8 8 7 7 7 7 7 6 6 5 6 7 8 10 11 12 14 16 15 14 13 14 15 15 13 11 9
0 0 0 0 0 0 0 0 0 0 1 1 1 2 3 5 6 7 7 6 5 6 7 7 7 6 5 5 7 9 10 11 11 12 13 13 12 12 13 13 12 12 10 9
0 0 0 0 0 0 1 1 0 0 1 1 1 1 2 4 6 7 6 4 4 6 7 7 7 7 6 6 7 9 11 11 9 8 8 9 10 12 13 12 11 11 11 10
0 0 0 0 0 0 0 1 1 1 1 1 1 1 3 4 6 7 6 5 5 6 7 8 8 7 8 7 7 9 11 10 8 7 7 8 11 15 15 13 12 12 11 11
0 0 0 0 0 0 0 0 1 1 1 1 1 2 4 5 6 6 6 6 6 6 7 8 8 8 8 8 8 9 10 9 8 7 8 10 13 16 15 13 11 11 10 10
1 1 0 0 0 0 0 0 0 1 1 1 1 3 5 5 5 6 7 7 6 5 6 8 9 9 8 8 8 8 8 8 8 7 8 10 12 13 12 10 10 9 8 8
1 1 0 0 0 0 0 0 0 1 1 1 1 3 4 3 4 5 6 6 6 6 7 9 10 10 9 9 9 9 9 9 9 9 9 10 10 11 10 10 10 8 7 6
1 1 1 1 0 0 0 0 0 0 1 1 2 3 3 3 4 6 7 7 7 7 10 12 14 13 12 11 11 11 11 11 11 10 10 9 9 9 11 12 11 9 6 5
1 1 1 1 1 1 1 2 2 2 3 3 4 4 5 6 7 9 10 10 10 10 13 15 16 15 13 12 11 10 10 10 11 11 10 8 7 8 10 12 11 8 6 5
1 1 1 1 1 1 2 4 4 4 5 5 5 6 8 9 11 13 13 12 11 11 12 15 16 15 13 12 11 9 8 8 9 11 10 8 7 7 8 9 9 8 6 5
1 2 2 1 1 1 2 3 3 4 4 5 5 6 8 8 9 11 11 10 9 8 9 13 16 16 14 13 11 9 7 7 8 9 9 8 7 7 7 7 7 7 7 6
1 1 2 1 1 1 1 1 1 2 3 4 4 5 6 6 5 5 6 7 7 7 8 14 19 19 17 14 12 10 8 8 8 9 9 8 7 7 6 6 7 7 7 7
1 1 1 1 1 1 1 1 1 1 2 4 5 5 5 4 3 4 5 7 8 8 10 17 22 21 18 16 14 11 8 7 8 8 9 9 8 7 6 6 6 6 6 7
1 1 1 1 0 0 1 1 1 2 3 4 5 5 5 5 5 7 9 10 10 11 16 21 23 21 18 16 14 11 9 7 7 8 9 10 10 8 7 6 7 7 6 6
1 1 1 1 1 1 1 1 2 3 4 4 5 5 6 6 8 11 11 9 9 13 20 23 22 19 17 15 13 11 9 7 7 8 9 11 10 8 7 7 7 7 7 6
2 2 2 2 2 2 2 2 2 3 3 4 5 5 6 6 9 13 13 10 8 13 18 21 20 18 16 13 12 10 9 7 7 7 8 10 10 8 7 7 7 8 7 7
1 1 2 2 2 2 1 1 1 2 2 3 4 5 5 5 7 11 14 13 10 11 15 17 16 15 13 11 10 10 9 7 7 7 7 8 9 8 8 7 7 8 8 7
1 1 1 1 1 1 1 1 1 1 2 3 3 3 3 4 4 7 12 15 14 12 13 13 12 11 10 9 9 10 9 7 7 7 7 8 8 8 7 6 5 6 7 7
1 1 1 1 1 1 1 1 1 1 2 2 3 3 3 3 3 5 9 14 15 13 12 10 9 8 8 8 9 9 8 7 7 7 7 8 8 7 6 4 4 5 5 5
Wind_Speed
14 14 14 16 17 17 15 15 14 12 10 11 11 9 8 7 8 8 8 9 7 6 7 8 9 10 10 9 8 6 6 6 4 4 4 3 3 2 2 3 3 3 2 2
14 18 18 17 16 16 17 17 16 11 8 8 9 10 8 9 9 8 8 9 9 8 7 8 9 9 9 9 8 7 5 6 5 4 3 3 3 2 3 2 3 3 3 2
19 15 17 17 16 15 16 16 14 12 9 9 10 12 11 8 8 7 7 7 9 10 9 9 9 9 9 9 9 7 6 5 4 4 3 3 2 2 2 3 3 3 3 2
17 17 15 14 15 15 15 14 14 14 12 9 10 9 9 8 8 7 7 6 8 9 9 9 10 10 9 9 9 7 6 5 4 4 4 5 4 3 3 3 3 3 3 3
14 14 15 15 16 15 14 13 14 14 13 13 11 10 7 7 7 7 8 7 6 8 9 9 9 9 9 9 9 8 7 5 5 5 5 4 4 3 3 3 4 4 3 3
16 14 14 15 15 14 12 12 12 12 12 15 14 12 7 5 7 7 6 5 5 7 8 8 7 7 8 9 9 8 7 6 5 5 4 4 4 4 4 4 4 3 3 2
17 17 15 12 13 12 11 10 9 10 11 12 11 11 4 4 6 6 6 5 5 6 7 8 8 7 7 8 9 8 8 7 6 5 4 4 4 4 4 3 4 3 2 2
14 13 14 13 13 12 13 14 11 10 10 9 10 8 3 2 2 4 6 6 5 6 6 7 8 8 7 7 8 8 8 7 6 5 5 4 4 3 2 2 2 2 2 2
9 9 9 10 11 13 14 14 15 14 13 11 7 6 4 2 3 5 5 6 6 6 7 7 6 7 7 7 7 7 8 7 6 5 4 4 4 3 3 3 2 2 2 3
10 11 10 8 9 13 13 11 9 11 11 11 8 8 6 5 5 5 5 4 5 6 5 5 5 5 6 6 7 7 7 7 6 5 5 5 4 4 3 3 3 2 2 2
8 10 11 10 11 11 11 12 10 9 10 10 9 4 1 4 4 4 4 4 5 5 5 4 4 4 5 6 7 7 7 6 5 5 5 4 5 5 4 3 3 2 2 2
6 8 10 11 9 11 12 12 10 9 10 10 9 4 1 2 4 4 2 3 4 4 5 5 5 4 5 5 5 6 6 6 5 5 4 4 4 4 4 4 3 3 2 2
5 5 8 10 10 11 11 12 11 10 9 10 10 4 1 3 2 4 3 3 4 4 4 4 5 4 4 5 4 5 5 5 5 5 5 4 4 4 4 3 3 3 3 2
5 7 10 12 8 7 10 12 11 10 9 10 11 5 2 1 2 3 4 4 4 4 4 4 4 4 3 3 3 4 4 4 5 5 5 4 4 4 4 3 3 3 3 2
5 10 13 14 13 13 13 12 12 12 12 11 9 6 4 2 2 3 4 4 3 4 4 3 4 3 3 3 3 3 3 3 4 4 4 3 3 3 3 3 3 3 2 3
5 8 11 14 13 13 14 13 13 14 12 11 9 6 2 2 1 1 3 3 3 3 4 3 3 3 3 2 2 3 3 3 4 4 4 4 4 4 3 3 3 3 3 2
6 8 10 12 11 12 14 12 10 10 8 9 8 4 1 2 3 2 2 2 2 2 3 3 3 3 3 2 2 2 2 2 3 3 4 4 4 4 4 4 4 3 3 2
8 7 7 10 11 14 5 4 6 7 4 3 2 2 1 0 2 2 1 1 1 2 3 3 3 3 3 3 2 2 2 2 3 3 3 4 4 4 4 3 3 3 2 2
9 8 7 7 10 10 5 5 7 6 3 2 2 1 1 1 1 2 3 3 3 2 3 4 4 4 3 3 2 2 1 2 2 3 3 3 3 3 3 3 3 3 2 2
10 9 8 9 9 8 2 4 6 4 3 2 3 2 2 2 1 1 3 3 3 3 3 4 4 4 3 3 2 2 2 1 1 2 2 2 2 2 2 2 2 2 2 2
9 9 11 11 9 4 5 7 4 4 1 4 5 5 4 3 3 3 4 3 2 3 3 3 4 4 3 3 3 2 1 1 0 1 2 2 2 2 2 2 2 2 2 2
5 7 8 8 8 4 5 5 2 3 4 5 5 5 5 4 3 3 3 3 3 3 2 3 3 4 3 3 3 2 1 1 1 1 1 2 2 1 2 2 2 2 2 3
3 3 2 3 2 2 3 3 3 2 3 3 3 3 3 3 3 3 3 2 2 1 2 2 3 3 3 3 2 2 1 1 1 1 1 1 2 1 1 2 2 2 2 2
2 2 2 2 1 2 3 3 3 3 3 2 2 3 3 3 3 2 2 2 1 1 1 2 2 3 2 2 2 1 1 1 1 1 1 1 1 2 1 1 2 2 1 2
6 4 3 4 4 4 3 3 4 4 4 4 4 4 3 3 3 2 1 2 0 1 1 1 2 2 2 2 2 2 1 1 1 1 1 1 1 1 1 1 0 1 1 2
6 5 4 4 3 3 3 3 4 5 4 4 4 4 4 3 3 3 2 2 1 1 0 1 1 2 2 2 1 2 2 2 1 1 1 1 2 2 2 2 1 2 1 3
Wind_Direction
215 224 229 232 235 248 257 261 260 251 242 236 241 237 220 209 212 202 192 190 185 184 175 153 147 144 140 140 143 145 150 147 153 158 165 166 172 175 160 153 148 153 163 175
220 227 235 242 243 247 255 260 264 259 240 244 253 253 234 214 215 211 200 189 184 177 167 152 154 152 151 150 149 148 149 156 168 162 169 166 161 170 151 147 149 154 160 182
230 235 230 238 243 245 251 256 268 272 259 244 251 252 245 216 208 201 195 188 183 171 168 164 161 158 160 156 156 159 158 164 169 158 163 151 145 154 154 159 162 165 169 172
238 246 241 240 246 246 250 253 262 269 265 252 240 258 244 218 204 193 193 198 187 172 166 166 165 164 164 159 158 157 157 161 165 164 172 173 172 174 169 159 162 164 163 171
240 241 243 241 243 246 252 259 258 264 267 264 251 249 243 214 209 203 197 194 186 170 166 165 168 165 163 160 160 158 154 158 168 177 180 185 175 174 162 158 159 163 166 176
252 251 246 246 247 248 252 258 260 261 261 256 251 251 244 221 210 206 188 185 177 160 159 156 157 158 163 162 159 155 156 161 166 179 181 187 179 173 172 169 164 174 168 177
242 244 244 243 250 243 244 245 244 237 237 247 250 245 241 232 205 194 177 166 161 149 149 150 158 165 172 165 161 160 160 163 166 177 183 183 181 180 182 181 176 181 170 171
243 238 230 227 234 241 233 235 239 244 246 254 248 237 200 204 160 141 146 146 146 146 150 155 164 168 173 165 158 157 156 162 167 175 182 175 179 184 178 186 182 183 186 178
265 256 230 224 230 241 241 238 249 258 266 266 248 233 209 167 134 132 143 154 158 157 161 163 165 164 164 165 157 157 156 161 167 171 171 172 174 175 169 168 178 185 198 178
269 279 264 235 230 232 246 251 252 255 262 267 253 233 213 174 168 161 156 152 152 155 156 151 154 157 163 165 155 153 154 162 165 171 180 175 171 170 164 164 167 172 181 168
269 272 268 240 225 233 236 244 249 258 261 266 270 264 94 162 174 170 165 157 154 147 145 147 154 147 152 159 158 153 151 158 166 173 175 169 171 171 169 170 169 170 173 160
263 267 271 259 249 243 242 244 245 252 260 269 272 268 338 129 128 132 144 144 142 146 144 147 146 145 153 151 149 147 153 166 171 171 169 168 165 166 166 167 165 163 168 181
309 270 265 255 245 232 240 243 246 247 257 262 263 246 188 78 87 118 128 119 119 124 124 128 133 137 148 148 145 149 161 168 168 167 165 163 169 168 165 168 168 167 171 183
280 262 260 262 269 270 256 255 257 251 250 253 258 242 228 242 206 144 123 117 120 124 117 122 127 131 131 132 139 149 162 161 161 158 158 163 168 173 173 178 173 170 176 189
265 262 261 265 270 275 268 260 255 255 257 262 265 242 220 229 199 132 132 131 135 124 117 114 115 108 122 128 130 138 141 134 136 141 146 155 154 160 167 175 168 168 182 192
238 264 269 266 262 265 269 262 256 252 250 252 258 266 291 301 351 132 138 141 130 128 127 120 109 114 114 121 133 128 130 133 137 145 156 159 158 161 168 177 174 173 181 190
245 249 266 268 266 261 253 261 257 256 250 246 253 254 249 328 341 1 77 123 158 132 115 108 106 104 96 92 101 124 133 125 140 150 157 168 177 174 173 183 173 174 184 194
255 268 266 266 268 256 250 262 260 246 250 249 232 185 199 310 23 27 13 113 111 122 118 105 104 106 88 75 84 101 111 131 147 154 171 184 176 169 171 179 173 176 182 192
230 245 258 258 257 255 254 272 278 263 247 283 272 246 53 60 46 43 35 59 66 65 89 101 120 120 101 97 96 97 94 146 166 172 177 177 172 163 167 174 177 176 182 196
223 222 244 257 261 263 292 315 318 287 229 1 21 33 29 5 304 49 47 53 61 55 77 101 114 121 120 110 107 118 128 138 162 173 161 147 153 156 155 165 166 169 179 191
221 222 235 251 257 268 326 332 320 256 17 26 32 38 37 11 24 46 43 47 63 80 89 107 121 125 118 113 111 108 90 62 83 124 144 145 137 145 150 148 150 163 187 188
237 236 235 245 248 256 354 341 352 37 42 36 30 32 34 29 53 48 37 40 40 71 82 99 109 109 109 116 122 114 86 43 46 77 101 120 122 138 141 147 173 186 196 195
270 288 295 296 274 45 25 17 47 55 38 25 17 20 25 24 32 42 33 29 31 84 88 94 108 110 108 108 112 119 89 52 39 59 82 108 122 127 136 169 192 196 203 215
279 320 290 293 269 358 356 17 357 9 350 349 10 351 354 4 14 30 30 4 33 99 98 100 120 125 126 129 137 126 115 99 94 76 79 128 156 154 148 179 198 196 207 221
312 308 286 271 274 297 325 340 338 345 343 347 354 346 351 353 356 7 353 329 265 138 128 155 154 155 159 158 158 150 146 143 164 159 158 177 187 160 143 170 254 209 195 198
286 287 281 276 283 296 298 314 331 332 334 329 333 336 341 342 341 348 343 332 311 87 94 230 187 173 161 164 169 165 162 162 180 185 201 218 210 174 174 189 175 40 152 148